Regional Weather Roundup
Issued by NWS

Home | Current Version | Previous Version | Text Only | Print | Product List | Glossary Off
Versions: 1 2 3 4 5 6 7 8 9 10 11 12 13 14 15 16 17 18 19 20 21 22 23 24 25 26 27 28 29 30 31 32 33 34 35 36 37 38 39 40 41 42 43 44 45 46 47 48

000
ASUS45 KCYS 290710
RWRWY

WYOMING REGIONAL WEATHER ROUNDUP
NATIONAL WEATHER SERVICE CHEYENNE WY
1200 AM MST SAT NOV 29 2014

NOTE:  "FAIR" INDICATES FEW OR NO CLOUDS BELOW 12,000 FEET
WITH NO SIGNIFICANT WEATHER AND/OR OBSTRUCTIONS TO VISIBILITY.

WYZ001-290800-
YELLOWSTONE NATIONAL PARK

CITY           SKY/WX    TMP DP  RH WIND       PRES   REMARKS
LK YELLOWSTONE   N/A     36  10  34 W9G21     29.63F WCI  29
W YELLOWSTONE  NOT AVBL

$$
WYZ002>013-054>058-071-098>099-290800-
NORTHERN WYOMING

CITY           SKY/WX    TMP DP  RH WIND       PRES   REMARKS
JACKSON        CLOUDY    45  14  29 SW17G30   29.68S
CODY           PTCLDY    46  16  29 SW10      29.51S
GREYBULL       PTCLDY    42  21  43 SE10G17   29.51F
WORLAND        CLEAR     40  22  48 SE13      29.53F WCI  32
SHERIDAN       PTCLDY    57  15  19 SW33G48   29.38F
BUFFALO        PTCLDY    53  13  20 W31G45    29.48S
GILLETTE       CLEAR     49  18  29 SW20      29.49F
HULETT           N/A    N/A N/A N/A MISG        N/A
NEWCASTLE      FAIR      43  21  42 MISG      29.58S

$$
WYZ014>020-022>026-101>103-290800-
CENTRAL WYOMING

CITY           SKY/WX    TMP DP  RH WIND       PRES   REMARKS
BIG PINEY      PTCLDY    29  16  58 W13       29.76F WCI  19
PINEDALE       MOSUNNY   36  16  44 SW15      29.74F WCI  26
DUBOIS         PTSUNNY   37  12  35 NW6G16    29.65F WCI  33
LANDER         PTCLDY    53   9  17 SW23G43   29.62S
RIVERTON       PTCLDY    46  13  26 SW14      29.65F
CASPER         PTCLDY    41  18  39 SW13      29.66F
DOUGLAS        CLEAR     52  14  22 W20       29.61F

$$
WYZ021-027>030-104>119-290800-
SOUTHERN WYOMING

CITY           SKY/WX    TMP DP  RH WIND       PRES   REMARKS
EVANSTON       PTCLDY    40  18  41 SW21      29.80F WCI  30
FORT BRIDGER   FAIR      46  13  26 SW20G26   29.81F
ROCK SPRINGS   PTCLDY    42  12  29 SW15      29.78F
DIXON          FAIR      38  19  46 SW5       29.90F WCI  34
RAWLINS        PTCLDY    44  14  29 SW23G32   29.78F
SARATOGA       FAIR      41  12  30 SW20      29.82F
LARAMIE        CLEAR     40  12  32 SW15      29.81F WCI  32
CHEYENNE       MOCLDY    49  12  22 W18G25    29.74F
TORRINGTON     MOCLDY    50  15  24 W6        29.64S
PINE BLUFFS    FAIR      39  18  41 S14       29.71F WCI  31

$$


USA.gov is the U.S. government's official web portal to all federal, state and local government web resources and services.